map of PWA home
PWA - Airport
Location
City:  Oklahoma City, Oklahoma, United States
Name:Wiley Post Airport
ICAO:KPWA
IATA:PWA
FAA LID:PWA

Details
Type:Airport (Airfield)
Use:Public/Civil
Latitude:3532'03"N (35.534164)
Longitude:9738'49"W (-97.647052)
Datum:WGS 1984
Elevation:1299 ft (396 m)
Variation:3.73E (WMM2015 magnetic declination)
-0.11 annual change
Runways:3
Longest:7199 × 150 ft (2194 × 45.5 m), paved

Time
Time Zone:UTC-6 (DST-5)
Local Time:

Weather
METAR:KPWA 190253Z AUTO 11005KT 10SM BKN090 BKN110 28/22 A2994 RMK AO2 SLP120 T02830217 53010

Related Locations
Nearby:
Farthest:RRG: 10852 mi / 17464 km
Plaine Corail [Sir Gatan Duval Airport (Plaine Corail Airport)], Rodrigues Island, MU

Find:

   beyond  
but within

Other Information
Maps:
NOTAMs:
Links:
Sources:

  
  • flag of United States
  • flag of Oklahoma
  

Airport Diagram

Airport diagram for PWA

Airport diagram PDF

Sectional Chart

Flight Planning
at skyvector.com

Satellite Image

Google Maps Satellite view

 

Copyright © 2004-2018 Karl L. Swartz. All rights reserved.
The Great Circle Mapper name and logo are trademarks of the Great Circle Mapper.
All other trademarks mentioned herein belong to their respective owners.
Please see credits for attibutions and further copyright information.

  Follow gcmap on Facebook Follow gcmap on Twitter Follow gcmap on Google+ GCmap on LinkedIn

hCard Microformat

Geo Microformat